Time,TemperatureF,DewpointF,PressureIn,WindDirection,WindDirectionDegrees,WindSpeedMPH,WindSpeedGustMPH,Humidity,HourlyPrecipIn,Conditions,Clouds,dailyrainin,SoftwareType,DateUTC
2013-07-29 00:01:00,59.8,56.6,30.01,WSW,248,0.0,2.0,89,0.00,,---,0.00,VWS V13.01,2013-07-29 04:01:00,
2013-07-29 00:02:00,59.8,56.6,30.01,WSW,248,0.0,2.0,89,0.00,,---,0.00,VWS V13.01,2013-07-29 04:02:00,
2013-07-29 00:07:00,59.8,56.6,30.01,WSW,248,0.0,2.0,89,0.00,,---,0.00,VWS V13.01,2013-07-29 04:07:00,
2013-07-29 00:12:00,59.6,56.7,30.01,WSW,248,0.0,0.0,90,0.00,,---,0.00,VWS V13.01,2013-07-29 04:12:00,
2013-07-29 00:17:00,59.4,56.2,30.01,WSW,248,0.0,0.0,89,0.00,,---,0.00,VWS V13.01,2013-07-29 04:17:00,
2013-07-29 00:22:00,59.3,56.4,30.01,WSW,248,0.0,0.0,90,0.00,,---,0.00,VWS V13.01,2013-07-29 04:22:00,
2013-07-29 00:27:00,59.0,56.1,30.01,WSW,248,0.0,0.0,90,0.00,,---,0.00,VWS V13.01,2013-07-29 04:27:00,
2013-07-29 00:32:00,58.8,55.9,30.02,WSW,248,0.0,0.0,90,0.00,,---,0.00,VWS V13.01,2013-07-29 04:32:00,
2013-07-29 00:37:00,58.6,55.7,30.02,WSW,248,0.0,0.0,90,0.00,,---,0.00,VWS V13.01,2013-07-29 04:37:00,
2013-07-29 00:42:00,58.4,55.8,30.02,WSW,248,0.0,1.0,91,0.00,,---,0.00,VWS V13.01,2013-07-29 04:42:00,
2013-07-29 00:47:00,58.3,55.7,30.02,WSW,248,0.0,1.0,91,0.00,,---,0.00,VWS V13.01,2013-07-29 04:47:00,
2013-07-29 00:52:00,58.1,55.5,30.02,WSW,248,0.0,0.0,91,0.00,,---,0.00,VWS V13.01,2013-07-29 04:52:00,
2013-07-29 00:57:00,57.8,55.2,30.02,WSW,248,0.0,0.0,91,0.00,,---,0.00,VWS V13.01,2013-07-29 04:57:00,
2013-07-29 01:02:00,57.6,55.0,30.02,WSW,248,0.0,0.0,91,0.00,,---,0.00,VWS V13.01,2013-07-29 05:02:00,
2013-07-29 01:07:00,57.5,55.2,30.02,WSW,248,0.0,1.0,92,0.00,,---,0.00,VWS V13.01,2013-07-29 05:07:00,
2013-07-29 01:12:00,57.4,55.1,30.02,WSW,248,0.0,1.0,92,0.00,,---,0.00,VWS V13.01,2013-07-29 05:12:00,
2013-07-29 01:17:00,57.3,55.0,30.02,WSW,248,0.0,1.0,92,0.00,,---,0.00,VWS V13.01,2013-07-29 05:17:00,
2013-07-29 01:22:00,57.1,54.8,30.02,WSW,248,0.0,0.0,92,0.00,,---,0.00,VWS V13.01,2013-07-29 05:22:00,
2013-07-29 01:27:00,57.0,54.7,30.02,WSW,248,0.0,0.0,92,0.00,,---,0.00,VWS V13.01,2013-07-29 05:27:00,
2013-07-29 01:32:00,56.9,54.6,30.02,WSW,248,0.0,0.0,92,0.00,,---,0.00,VWS V13.01,2013-07-29 05:32:00,
2013-07-29 01:37:00,56.8,54.5,30.02,WSW,248,0.0,0.0,92,0.00,,---,0.00,VWS V13.01,2013-07-29 05:37:00,
2013-07-29 01:42:00,56.6,54.6,30.02,WSW,248,0.0,0.0,93,0.00,,---,0.00,VWS V13.01,2013-07-29 05:42:00,
2013-07-29 01:47:00,56.5,54.5,30.02,WSW,248,0.0,1.0,93,0.00,,---,0.00,VWS V13.01,2013-07-29 05:47:00,
2013-07-29 01:52:00,56.4,54.4,30.02,WSW,248,0.0,0.0,93,0.00,,---,0.00,VWS V13.01,2013-07-29 05:52:00,
2013-07-29 01:57:00,56.3,54.3,30.02,WSW,248,0.0,0.0,93,0.00,,---,0.00,VWS V13.01,2013-07-29 05:57:00,
2013-07-29 02:02:00,56.2,54.2,30.02,WSW,248,0.0,0.0,93,0.00,,---,0.00,VWS V13.01,2013-07-29 06:02:00,
2013-07-29 02:07:00,56.1,54.1,30.02,WSW,248,0.0,0.0,93,0.00,,---,0.00,VWS V13.01,2013-07-29 06:07:00,
2013-07-29 02:12:00,56.0,54.0,30.02,WSW,248,0.0,0.0,93,0.00,,---,0.00,VWS V13.01,2013-07-29 06:12:00,
2013-07-29 02:17:00,55.9,53.9,30.02,WSW,248,0.0,1.0,93,0.00,,---,0.00,VWS V13.01,2013-07-29 06:17:00,
2013-07-29 02:22:00,55.9,54.2,30.02,WSW,248,0.0,1.0,94,0.00,,---,0.00,VWS V13.01,2013-07-29 06:22:00,
2013-07-29 02:27:00,55.9,54.2,30.02,WSW,248,0.0,1.0,94,0.00,,---,0.00,VWS V13.01,2013-07-29 06:27:00,
2013-07-29 02:32:00,55.8,54.1,30.02,WSW,248,0.0,0.0,94,0.00,,---,0.00,VWS V13.01,2013-07-29 06:32:00,
2013-07-29 02:37:00,55.7,54.0,30.02,WSW,248,0.0,0.0,94,0.00,,---,0.00,VWS V13.01,2013-07-29 06:37:00,
2013-07-29 02:42:00,55.5,53.8,30.02,WSW,248,0.0,0.0,94,0.00,,---,0.00,VWS V13.01,2013-07-29 06:42:00,
2013-07-29 02:47:00,55.3,53.6,30.02,WSW,248,0.0,0.0,94,0.00,,---,0.00,VWS V13.01,2013-07-29 06:47:00,
2013-07-29 02:52:00,55.2,53.2,30.02,WSW,248,0.0,0.0,93,0.00,,---,0.00,VWS V13.01,2013-07-29 06:52:00,
2013-07-29 02:57:00,55.0,53.0,30.02,WSW,248,0.0,0.0,93,0.00,,---,0.00,VWS V13.01,2013-07-29 06:57:00,
2013-07-29 03:02:00,54.9,53.2,30.02,WSW,248,0.0,0.0,94,0.00,,---,0.00,VWS V13.01,2013-07-29 07:02:00,
2013-07-29 03:07:00,54.8,53.1,30.03,WSW,248,0.0,0.0,94,0.00,,---,0.00,VWS V13.01,2013-07-29 07:07:00,
2013-07-29 03:12:00,54.6,52.9,30.03,WSW,248,0.0,0.0,94,0.00,,---,0.00,VWS V13.01,2013-07-29 07:12:00,
2013-07-29 03:17:00,54.5,52.8,30.02,WSW,248,0.0,0.0,94,0.00,,---,0.00,VWS V13.01,2013-07-29 07:17:00,
2013-07-29 03:22:00,54.4,52.7,30.02,WSW,248,0.0,0.0,94,0.00,,---,0.00,VWS V13.01,2013-07-29 07:22:00,
2013-07-29 03:27:00,54.2,52.5,30.02,WSW,248,0.0,0.0,94,0.00,,---,0.00,VWS V13.01,2013-07-29 07:27:00,
2013-07-29 03:32:00,54.1,52.4,30.03,WSW,248,0.0,0.0,94,0.00,,---,0.00,VWS V13.01,2013-07-29 07:32:00,
2013-07-29 03:37:00,54.1,52.4,30.03,WSW,248,0.0,0.0,94,0.00,,---,0.00,VWS V13.01,2013-07-29 07:37:00,
2013-07-29 03:42:00,54.0,52.3,30.03,WSW,248,0.0,0.0,94,0.00,,---,0.00,VWS V13.01,2013-07-29 07:42:00,
2013-07-29 03:47:00,54.0,52.3,30.03,WSW,248,0.0,0.0,94,0.00,,---,0.00,VWS V13.01,2013-07-29 07:47:00,
2013-07-29 03:52:00,53.9,52.5,30.03,WSW,248,0.0,0.0,95,0.00,,---,0.00,VWS V13.01,2013-07-29 07:52:00,
2013-07-29 03:57:00,53.9,52.5,30.03,WSW,248,0.0,0.0,95,0.00,,---,0.00,VWS V13.01,2013-07-29 07:57:00,
2013-07-29 04:02:00,53.8,52.4,30.03,WSW,248,0.0,0.0,95,0.00,,---,0.00,VWS V13.01,2013-07-29 08:02:00,
2013-07-29 04:07:00,53.7,52.3,30.03,WSW,248,0.0,0.0,95,0.00,,---,0.00,VWS V13.01,2013-07-29 08:07:00,
2013-07-29 04:12:00,53.6,51.9,30.03,WSW,248,0.0,0.0,94,0.00,,---,0.00,VWS V13.01,2013-07-29 08:12:00,
2013-07-29 04:17:00,53.5,51.8,30.03,WSW,248,0.0,0.0,94,0.00,,---,0.00,VWS V13.01,2013-07-29 08:17:00,
2013-07-29 04:22:00,53.3,51.6,30.03,WSW,248,0.0,0.0,94,0.00,,---,0.00,VWS V13.01,2013-07-29 08:22:00,
2013-07-29 04:27:00,53.2,51.8,30.03,WSW,248,0.0,0.0,95,0.00,,---,0.00,VWS V13.01,2013-07-29 08:27:00,
2013-07-29 04:32:00,53.2,51.8,30.03,WSW,248,0.0,0.0,95,0.00,,---,0.00,VWS V13.01,2013-07-29 08:32:00,
2013-07-29 04:37:00,53.1,51.7,30.03,WSW,248,0.0,0.0,95,0.00,,---,0.00,VWS V13.01,2013-07-29 08:37:00,
2013-07-29 04:42:00,53.1,51.7,30.03,WSW,248,0.0,0.0,95,0.00,,---,0.00,VWS V13.01,2013-07-29 08:42:00,
2013-07-29 04:47:00,53.0,51.6,30.03,WSW,248,0.0,0.0,95,0.00,,---,0.00,VWS V13.01,2013-07-29 08:47:00,
2013-07-29 04:52:00,53.0,51.6,30.04,WSW,248,0.0,1.0,95,0.00,,---,0.00,VWS V13.01,2013-07-29 08:52:00,
2013-07-29 04:57:00,53.0,51.6,30.04,WSW,248,0.0,1.0,95,0.00,,---,0.00,VWS V13.01,2013-07-29 08:57:00,
2013-07-29 05:02:00,53.0,51.6,30.04,WSW,248,0.0,0.0,95,0.00,,---,0.00,VWS V13.01,2013-07-29 09:02:00,
2013-07-29 05:07:00,53.0,51.6,30.04,WSW,248,0.0,0.0,95,0.00,,---,0.00,VWS V13.01,2013-07-29 09:07:00,
2013-07-29 05:12:00,52.9,51.5,30.04,WSW,248,0.0,0.0,95,0.00,,---,0.00,VWS V13.01,2013-07-29 09:12:00,
2013-07-29 05:17:00,52.9,51.5,30.04,WSW,248,0.0,0.0,95,0.00,,---,0.00,VWS V13.01,2013-07-29 09:17:00,
2013-07-29 05:22:00,52.7,51.3,30.04,WSW,248,0.0,0.0,95,0.00,,---,0.00,VWS V13.01,2013-07-29 09:22:00,
2013-07-29 05:27:00,52.7,51.3,30.04,WSW,248,0.0,0.0,95,0.00,,---,0.00,VWS V13.01,2013-07-29 09:27:00,
2013-07-29 05:32:00,52.6,51.2,30.05,WSW,248,0.0,1.0,95,0.00,,---,0.00,VWS V13.01,2013-07-29 09:32:00,
2013-07-29 05:37:00,52.5,51.1,30.05,WSW,248,0.0,1.0,95,0.00,,---,0.00,VWS V13.01,2013-07-29 09:37:00,
2013-07-29 05:42:00,52.4,51.0,30.05,WSW,248,0.0,0.0,95,0.00,,---,0.00,VWS V13.01,2013-07-29 09:42:00,
2013-07-29 05:47:00,52.3,50.9,30.05,WSW,248,0.0,1.0,95,0.00,,---,0.00,VWS V13.01,2013-07-29 09:47:00,
2013-07-29 05:52:00,52.3,50.9,30.05,WSW,248,0.0,0.0,95,0.00,,---,0.00,VWS V13.01,2013-07-29 09:52:00,
2013-07-29 05:57:00,52.2,50.8,30.05,WSW,248,0.0,0.0,95,0.00,,---,0.00,VWS V13.01,2013-07-29 09:57:00,
2013-07-29 06:02:00,52.1,50.7,30.05,WSW,248,0.0,0.0,95,0.00,,---,0.00,VWS V13.01,2013-07-29 10:02:00,
2013-07-29 06:07:00,52.0,50.6,30.05,WSW,248,0.0,0.0,95,0.00,,---,0.00,VWS V13.01,2013-07-29 10:07:00,
2013-07-29 06:12:00,51.9,50.5,30.06,WSW,248,0.0,0.0,95,0.00,,---,0.00,VWS V13.01,2013-07-29 10:12:00,
2013-07-29 06:17:00,51.9,50.5,30.06,WSW,248,0.0,0.0,95,0.00,,---,0.00,VWS V13.01,2013-07-29 10:17:00,
2013-07-29 06:22:00,51.9,50.5,30.06,WSW,248,0.0,0.0,95,0.00,,---,0.00,VWS V13.01,2013-07-29 10:22:00,
2013-07-29 06:27:00,51.8,50.4,30.06,WSW,248,0.0,0.0,95,0.00,,---,0.00,VWS V13.01,2013-07-29 10:27:00,
2013-07-29 06:32:00,51.8,50.4,30.06,WSW,248,0.0,0.0,95,0.00,,---,0.00,VWS V13.01,2013-07-29 10:32:00,
2013-07-29 06:37:00,51.8,50.4,30.07,WSW,248,0.0,0.0,95,0.00,,---,0.00,VWS V13.01,2013-07-29 10:37:00,
2013-07-29 06:42:00,51.8,50.4,30.07,WSW,248,0.0,0.0,95,0.00,,---,0.00,VWS V13.01,2013-07-29 10:42:00,
2013-07-29 06:48:00,51.8,50.4,30.07,WSW,248,0.0,0.0,95,0.00,,---,0.00,VWS V13.01,2013-07-29 10:48:00,
2013-07-29 06:53:00,51.8,50.4,30.07,WSW,248,0.0,0.0,95,0.00,,---,0.00,VWS V13.01,2013-07-29 10:53:00,
2013-07-29 06:58:00,52.0,50.9,30.07,WSW,248,0.0,0.0,96,0.00,,---,0.00,VWS V13.01,2013-07-29 10:58:00,
2013-07-29 07:03:00,52.2,51.1,30.07,WSW,248,0.0,0.0,96,0.00,,---,0.00,VWS V13.01,2013-07-29 11:03:00,
2013-07-29 07:08:00,52.5,51.4,30.07,WSW,248,0.0,1.0,96,0.00,,---,0.00,VWS V13.01,2013-07-29 11:08:00,
2013-07-29 07:13:00,52.8,51.7,30.07,WSW,248,0.0,0.0,96,0.00,,---,0.00,VWS V13.01,2013-07-29 11:13:00,
2013-07-29 07:18:00,53.1,52.0,30.07,WSW,248,0.0,1.0,96,0.00,,---,0.00,VWS V13.01,2013-07-29 11:18:00,
2013-07-29 07:23:00,53.7,52.6,30.07,WSW,248,0.0,0.0,96,0.00,,---,0.00,VWS V13.01,2013-07-29 11:23:00,
2013-07-29 07:28:00,54.6,53.8,30.07,WSW,248,0.0,0.0,97,0.00,,---,0.00,VWS V13.01,2013-07-29 11:28:00,
2013-07-29 07:33:00,55.1,54.3,30.07,WSW,248,0.0,1.0,97,0.00,,---,0.00,VWS V13.01,2013-07-29 11:33:00,
2013-07-29 07:38:00,55.6,54.8,30.07,WSW,248,0.0,1.0,97,0.00,,---,0.00,VWS V13.01,2013-07-29 11:38:00,
2013-07-29 07:43:00,56.3,55.5,30.08,WSW,248,1.0,1.0,97,0.00,,---,0.00,VWS V13.01,2013-07-29 11:43:00,
2013-07-29 07:48:00,56.9,55.5,30.08,SW,215,0.0,2.0,95,0.00,,---,0.00,VWS V13.01,2013-07-29 11:48:00,
2013-07-29 07:53:00,57.4,55.1,30.08,SW,215,0.0,1.0,92,0.00,,---,0.00,VWS V13.01,2013-07-29 11:53:00,
2013-07-29 07:58:00,58.0,55.1,30.08,SW,227,1.0,5.0,90,0.00,,---,0.00,VWS V13.01,2013-07-29 11:58:00,
2013-07-29 08:03:00,58.7,55.2,30.08,SSW,209,3.0,6.0,88,0.00,,---,0.00,VWS V13.01,2013-07-29 12:03:00,
2013-07-29 08:08:00,59.4,55.2,30.08,SW,215,4.0,6.0,86,0.00,,---,0.00,VWS V13.01,2013-07-29 12:08:00,
2013-07-29 08:13:00,60.0,55.5,30.08,SSW,208,5.0,6.0,85,0.00,,---,0.00,VWS V13.01,2013-07-29 12:13:00,
2013-07-29 08:18:00,60.5,55.0,30.08,SW,228,6.0,9.0,82,0.00,,---,0.00,VWS V13.01,2013-07-29 12:18:00,
2013-07-29 08:23:00,61.0,55.5,30.08,SW,224,5.0,9.0,82,0.00,,---,0.00,VWS V13.01,2013-07-29 12:23:00,
2013-07-29 08:29:00,61.4,55.2,30.08,SSW,210,5.0,9.0,80,0.00,,---,0.00,VWS V13.01,2013-07-29 12:29:00,
2013-07-29 08:34:00,61.8,55.9,30.08,SW,223,8.0,8.0,81,0.00,,---,0.00,VWS V13.01,2013-07-29 12:34:00,
2013-07-29 08:39:00,62.2,55.6,30.08,SSW,213,7.0,10.0,79,0.00,,---,0.00,VWS V13.01,2013-07-29 12:39:00,
2013-07-29 08:44:00,62.4,55.8,30.08,SW,227,5.0,9.0,79,0.00,,---,0.00,VWS V13.01,2013-07-29 12:44:00,
2013-07-29 08:49:00,62.6,55.3,30.08,SW,226,8.0,11.0,77,0.00,,---,0.00,VWS V13.01,2013-07-29 12:49:00,
2013-07-29 08:54:00,62.9,55.6,30.08,SSW,202,3.0,8.0,77,0.00,,---,0.00,VWS V13.01,2013-07-29 12:54:00,
2013-07-29 08:59:00,63.4,56.1,30.08,SSW,200,3.0,8.0,77,0.00,,---,0.00,VWS V13.01,2013-07-29 12:59:00,
2013-07-29 09:04:00,63.8,56.1,30.08,SSW,196,4.0,7.0,76,0.00,,---,0.00,VWS V13.01,2013-07-29 13:04:00,
2013-07-29 09:09:00,64.3,56.6,30.08,South,188,3.0,7.0,76,0.00,,---,0.00,VWS V13.01,2013-07-29 13:09:00,
2013-07-29 09:14:00,64.8,57.1,30.08,SW,219,5.0,7.0,76,0.00,,---,0.00,VWS V13.01,2013-07-29 13:14:00,
2013-07-29 09:19:00,65.0,56.5,30.08,WSW,245,6.0,9.0,74,0.00,,---,0.00,VWS V13.01,2013-07-29 13:19:00,
2013-07-29 09:24:00,65.2,56.7,30.08,SSW,207,6.0,8.0,74,0.00,,---,0.00,VWS V13.01,2013-07-29 13:24:00,
2013-07-29 09:29:00,65.4,57.3,30.09,SW,232,4.0,9.0,75,0.00,,---,0.00,VWS V13.01,2013-07-29 13:29:00,
2013-07-29 09:34:00,65.5,57.0,30.09,WSW,251,3.0,10.0,74,0.00,,---,0.00,VWS V13.01,2013-07-29 13:34:00,
2013-07-29 09:39:00,65.8,57.3,30.09,SW,220,5.0,6.0,74,0.00,,---,0.00,VWS V13.01,2013-07-29 13:39:00,
2013-07-29 09:44:00,66.0,57.5,30.09,WSW,243,3.0,7.0,74,0.00,,---,0.00,VWS V13.01,2013-07-29 13:44:00,
2013-07-29 09:49:00,66.5,58.3,30.09,WNW,283,4.0,4.0,75,0.00,,---,0.00,VWS V13.01,2013-07-29 13:49:00,
2013-07-29 09:54:00,66.8,57.5,30.09,SSW,211,7.0,10.0,72,0.00,,---,0.00,VWS V13.01,2013-07-29 13:54:00,
2013-07-29 09:59:00,66.8,57.5,30.08,SW,226,5.0,7.0,72,0.00,,---,0.00,VWS V13.01,2013-07-29 13:59:00,
2013-07-29 10:04:00,67.0,57.7,30.08,SW,231,5.0,9.0,72,0.00,,---,0.00,VWS V13.01,2013-07-29 14:04:00,
2013-07-29 10:09:00,67.3,56.8,30.08,WNW,283,2.0,4.0,69,0.00,,---,0.00,VWS V13.01,2013-07-29 14:09:00,
2013-07-29 10:14:00,67.5,57.8,30.08,SW,221,1.0,7.0,71,0.00,,---,0.00,VWS V13.01,2013-07-29 14:14:00,
2013-07-29 10:19:00,67.7,57.2,30.08,SSW,213,7.0,10.0,69,0.00,,---,0.00,VWS V13.01,2013-07-29 14:19:00,
2013-07-29 10:24:00,67.8,56.9,30.08,WSW,250,6.0,10.0,68,0.00,,---,0.00,VWS V13.01,2013-07-29 14:24:00,
2013-07-29 10:29:00,68.1,56.7,30.08,WSW,242,5.0,5.0,67,0.00,,---,0.00,VWS V13.01,2013-07-29 14:29:00,
2013-07-29 10:34:00,68.4,57.4,30.08,SW,232,4.0,9.0,68,0.00,,---,0.00,VWS V13.01,2013-07-29 14:34:00,
2013-07-29 10:39:00,68.7,58.1,30.08,WSW,237,6.0,7.0,69,0.00,,---,0.00,VWS V13.01,2013-07-29 14:39:00,
2013-07-29 10:44:00,68.9,57.1,30.08,SW,222,3.0,9.0,66,0.00,,---,0.00,VWS V13.01,2013-07-29 14:44:00,
2013-07-29 10:49:00,69.0,58.0,30.08,SW,225,5.0,5.0,68,0.00,,---,0.00,VWS V13.01,2013-07-29 14:49:00,
2013-07-29 10:54:00,69.4,57.1,30.08,SW,234,4.0,8.0,65,0.00,,---,0.00,VWS V13.01,2013-07-29 14:54:00,
2013-07-29 11:00:00,69.7,57.8,30.08,SSW,213,6.0,7.0,66,0.00,,---,0.00,VWS V13.01,2013-07-29 15:00:00,
2013-07-29 11:05:00,69.9,57.6,30.08,West,275,4.0,10.0,65,0.00,,---,0.00,VWS V13.01,2013-07-29 15:05:00,
2013-07-29 11:10:00,70.4,57.7,30.08,SSW,199,5.0,8.0,64,0.00,,---,0.00,VWS V13.01,2013-07-29 15:10:00,
2013-07-29 11:15:00,70.1,56.9,30.08,NNW,329,1.0,12.0,63,0.00,,---,0.00,VWS V13.01,2013-07-29 15:15:00,
2013-07-29 11:20:00,70.1,56.9,30.08,West,269,2.0,4.0,63,0.00,,---,0.00,VWS V13.01,2013-07-29 15:20:00,
2013-07-29 11:25:00,70.6,58.7,30.08,SW,228,4.0,7.0,66,0.00,,---,0.00,VWS V13.01,2013-07-29 15:25:00,
2013-07-29 11:30:00,71.1,58.3,30.08,SSW,205,4.0,10.0,64,0.00,,---,0.00,VWS V13.01,2013-07-29 15:30:00,
2013-07-29 11:35:00,70.8,56.2,30.08,West,263,5.0,11.0,60,0.00,,---,0.00,VWS V13.01,2013-07-29 15:35:00,
2013-07-29 11:40:00,70.3,57.1,30.08,WNW,283,2.0,6.0,63,0.00,,---,0.00,VWS V13.01,2013-07-29 15:40:00,
2013-07-29 11:45:00,70.4,56.3,30.08,West,277,4.0,10.0,61,0.00,,---,0.00,VWS V13.01,2013-07-29 15:45:00,
2013-07-29 11:51:00,69.6,55.6,30.08,SW,228,8.0,10.0,61,0.00,,---,0.00,VWS V13.01,2013-07-29 15:51:00,
2013-07-29 11:56:00,69.4,56.7,30.08,WSW,240,3.0,10.0,64,0.00,,---,0.00,VWS V13.01,2013-07-29 15:56:00,
2013-07-29 12:01:00,70.4,56.3,30.08,WNW,289,2.0,11.0,61,0.00,,---,0.00,VWS V13.01,2013-07-29 16:01:00,
2013-07-29 12:06:00,70.6,55.6,30.08,SW,233,4.0,11.0,59,0.00,,---,0.00,VWS V13.01,2013-07-29 16:06:00,
2013-07-29 12:11:00,70.5,55.5,30.08,WSW,246,7.0,8.0,59,0.00,,---,0.00,VWS V13.01,2013-07-29 16:11:00,
2013-07-29 12:16:00,70.2,55.7,30.08,West,273,9.0,10.0,60,0.00,,---,0.00,VWS V13.01,2013-07-29 16:16:00,
2013-07-29 12:21:00,70.8,56.7,30.08,SW,230,5.0,9.0,61,0.00,,---,0.00,VWS V13.01,2013-07-29 16:21:00,
2013-07-29 12:26:00,71.4,56.3,30.08,SW,234,5.0,14.0,59,0.00,,---,0.00,VWS V13.01,2013-07-29 16:26:00,
2013-07-29 12:31:00,72.1,55.6,30.08,SW,224,8.0,12.0,56,0.00,,---,0.00,VWS V13.01,2013-07-29 16:31:00,
2013-07-29 12:36:00,71.5,55.0,30.08,WNW,284,6.0,12.0,56,0.00,,---,0.00,VWS V13.01,2013-07-29 16:36:00,
2013-07-29 12:41:00,70.8,54.3,30.08,SW,229,10.0,10.0,56,0.00,,---,0.00,VWS V13.01,2013-07-29 16:41:00,
2013-07-29 12:46:00,70.5,55.0,30.08,West,270,2.0,12.0,58,0.00,,---,0.00,VWS V13.01,2013-07-29 16:46:00,
2013-07-29 12:52:00,71.2,55.7,30.08,WSW,254,5.0,11.0,58,0.00,,---,0.00,VWS V13.01,2013-07-29 16:52:00,
2013-07-29 12:57:00,71.8,56.2,30.08,WSW,254,7.0,13.0,58,0.00,,---,0.00,VWS V13.01,2013-07-29 16:57:00,
2013-07-29 13:02:00,72.3,57.2,30.08,SSW,202,6.0,8.0,59,0.00,,---,0.00,VWS V13.01,2013-07-29 17:02:00,
2013-07-29 13:07:00,73.1,57.0,30.08,WNW,294,5.0,13.0,57,0.00,,---,0.00,VWS V13.01,2013-07-29 17:07:00,
2013-07-29 13:12:00,73.4,56.8,30.08,SW,232,6.0,12.0,56,0.00,,---,0.00,VWS V13.01,2013-07-29 17:12:00,
2013-07-29 13:17:00,73.2,56.1,30.08,West,267,10.0,12.0,55,0.00,,---,0.00,VWS V13.01,2013-07-29 17:17:00,
2013-07-29 13:22:00,73.1,56.0,30.08,West,263,4.0,10.0,55,0.00,,---,0.00,VWS V13.01,2013-07-29 17:22:00,
2013-07-29 13:27:00,73.0,54.4,30.08,SW,221,6.0,13.0,52,0.00,,---,0.00,VWS V13.01,2013-07-29 17:27:00,
2013-07-29 13:32:00,73.5,55.3,30.08,WSW,250,7.0,13.0,53,0.00,,---,0.00,VWS V13.01,2013-07-29 17:32:00,
2013-07-29 13:37:00,73.1,54.5,30.08,SW,215,6.0,15.0,52,0.00,,---,0.00,VWS V13.01,2013-07-29 17:37:00,
2013-07-29 13:42:00,72.6,54.0,30.08,WSW,251,8.0,17.0,52,0.00,,---,0.00,VWS V13.01,2013-07-29 17:42:00,
2013-07-29 13:47:00,73.0,55.4,30.08,SW,235,11.0,17.0,54,0.00,,---,0.00,VWS V13.01,2013-07-29 17:47:00,
2013-07-29 13:52:00,73.0,53.8,30.08,SW,232,5.0,11.0,51,0.00,,---,0.00,VWS V13.01,2013-07-29 17:52:00,
2013-07-29 13:57:00,72.6,54.0,30.08,SW,220,5.0,12.0,52,0.00,,---,0.00,VWS V13.01,2013-07-29 17:57:00,
2013-07-29 14:02:00,73.0,54.4,30.08,WSW,256,5.0,13.0,52,0.00,,---,0.00,VWS V13.01,2013-07-29 18:02:00,
2013-07-29 14:07:00,72.8,53.6,30.09,West,269,5.0,19.0,51,0.00,,---,0.00,VWS V13.01,2013-07-29 18:07:00,
2013-07-29 14:12:00,72.4,53.8,30.08,SW,227,7.0,15.0,52,0.00,,---,0.00,VWS V13.01,2013-07-29 18:12:00,
2013-07-29 14:17:00,72.5,54.9,30.08,WSW,242,7.0,15.0,54,0.00,,---,0.00,VWS V13.01,2013-07-29 18:17:00,
2013-07-29 14:22:00,72.9,54.8,30.09,SW,225,9.0,12.0,53,0.00,,---,0.00,VWS V13.01,2013-07-29 18:22:00,
2013-07-29 14:27:00,73.8,55.1,30.09,SW,230,9.0,14.0,52,0.00,,---,0.00,VWS V13.01,2013-07-29 18:27:00,
2013-07-29 14:33:00,74.0,54.7,30.09,SSW,213,13.0,13.0,51,0.00,,---,0.00,VWS V13.01,2013-07-29 18:33:00,
2013-07-29 14:38:00,73.3,54.1,30.09,SW,222,6.0,14.0,51,0.00,,---,0.00,VWS V13.01,2013-07-29 18:38:00,
2013-07-29 14:43:00,72.8,54.7,30.09,SW,225,5.0,11.0,53,0.00,,---,0.00,VWS V13.01,2013-07-29 18:43:00,
2013-07-29 14:48:00,72.6,54.5,30.09,WSW,240,9.0,13.0,53,0.00,,---,0.00,VWS V13.01,2013-07-29 18:48:00,
2013-07-29 14:53:00,72.2,54.1,30.10,SW,220,11.0,13.0,53,0.00,,---,0.00,VWS V13.01,2013-07-29 18:53:00,
2013-07-29 14:58:00,71.8,53.8,30.10,SW,235,9.0,13.0,53,0.00,,---,0.00,VWS V13.01,2013-07-29 18:58:00,
2013-07-29 15:03:00,71.8,54.8,30.10,West,276,6.0,12.0,55,0.00,,---,0.00,VWS V13.01,2013-07-29 19:03:00,
2013-07-29 15:08:00,73.0,56.4,30.09,West,271,10.0,15.0,56,0.00,,---,0.00,VWS V13.01,2013-07-29 19:08:00,
2013-07-29 15:13:00,73.9,55.7,30.09,SW,223,7.0,13.0,53,0.00,,---,0.00,VWS V13.01,2013-07-29 19:13:00,
2013-07-29 15:18:00,73.9,56.2,30.09,WSW,240,5.0,14.0,54,0.00,,---,0.00,VWS V13.01,2013-07-29 19:18:00,
2013-07-29 15:23:00,73.3,55.2,30.09,WSW,246,7.0,12.0,53,0.00,,---,0.00,VWS V13.01,2013-07-29 19:23:00,
2013-07-29 15:28:00,72.8,56.7,30.09,SW,235,5.0,12.0,57,0.00,,---,0.00,VWS V13.01,2013-07-29 19:28:00,
2013-07-29 15:33:00,72.5,54.9,30.09,WSW,249,2.0,9.0,54,0.00,,---,0.00,VWS V13.01,2013-07-29 19:33:00,
2013-07-29 15:38:00,72.2,56.1,30.09,WSW,243,8.0,9.0,57,0.00,,---,0.00,VWS V13.01,2013-07-29 19:38:00,
2013-07-29 15:43:00,72.2,56.1,30.09,SW,220,5.0,13.0,57,0.00,,---,0.00,VWS V13.01,2013-07-29 19:43:00,
2013-07-29 15:48:00,72.4,55.8,30.09,SW,228,3.0,13.0,56,0.00,,---,0.00,VWS V13.01,2013-07-29 19:48:00,
2013-07-29 15:53:00,72.1,54.6,30.09,West,273,6.0,12.0,54,0.00,,---,0.00,VWS V13.01,2013-07-29 19:53:00,
2013-07-29 15:58:00,71.7,55.7,30.09,SSW,211,7.0,12.0,57,0.00,,---,0.00,VWS V13.01,2013-07-29 19:58:00,
2013-07-29 16:03:00,71.6,55.6,30.09,SW,214,10.0,10.0,57,0.00,,---,0.00,VWS V13.01,2013-07-29 20:03:00,
2013-07-29 16:08:00,71.7,56.2,30.09,WSW,237,3.0,12.0,58,0.00,,---,0.00,VWS V13.01,2013-07-29 20:08:00,
2013-07-29 16:13:00,72.4,55.8,30.09,SW,221,6.0,9.0,56,0.00,,---,0.00,VWS V13.01,2013-07-29 20:13:00,
2013-07-29 16:18:00,73.4,56.3,30.09,SW,234,11.0,11.0,55,0.00,,---,0.00,VWS V13.01,2013-07-29 20:18:00,
2013-07-29 16:23:00,73.9,56.2,30.09,SW,223,2.0,11.0,54,0.00,,---,0.00,VWS V13.01,2013-07-29 20:23:00,
2013-07-29 16:28:00,73.5,56.4,30.09,WSW,244,7.0,11.0,55,0.00,,---,0.00,VWS V13.01,2013-07-29 20:28:00,
2013-07-29 16:34:00,73.1,55.0,30.09,WSW,246,5.0,8.0,53,0.00,,---,0.00,VWS V13.01,2013-07-29 20:34:00,
2013-07-29 16:39:00,72.8,54.7,30.09,West,265,7.0,11.0,53,0.00,,---,0.00,VWS V13.01,2013-07-29 20:39:00,
2013-07-29 16:44:00,72.8,55.7,30.09,SSW,211,4.0,12.0,55,0.00,,---,0.00,VWS V13.01,2013-07-29 20:44:00,
2013-07-29 16:49:00,73.1,55.0,30.09,SW,214,11.0,15.0,53,0.00,,---,0.00,VWS V13.01,2013-07-29 20:49:00,
2013-07-29 16:54:00,72.6,55.0,30.09,SW,221,11.0,14.0,54,0.00,,---,0.00,VWS V13.01,2013-07-29 20:54:00,
2013-07-29 16:59:00,72.4,55.8,30.10,WSW,240,6.0,14.0,56,0.00,,---,0.00,VWS V13.01,2013-07-29 20:59:00,
2013-07-29 17:04:00,72.4,56.3,30.10,WSW,250,7.0,10.0,57,0.00,,---,0.00,VWS V13.01,2013-07-29 21:04:00,
2013-07-29 17:09:00,72.0,55.5,30.10,SW,219,5.0,12.0,56,0.00,,---,0.00,VWS V13.01,2013-07-29 21:09:00,
2013-07-29 17:14:00,71.9,56.3,30.10,SW,235,4.0,8.0,58,0.00,,---,0.00,VWS V13.01,2013-07-29 21:14:00,
2013-07-29 17:19:00,72.3,56.7,30.10,West,275,5.0,8.0,58,0.00,,---,0.00,VWS V13.01,2013-07-29 21:19:00,
2013-07-29 17:24:00,72.5,56.9,30.10,West,269,4.0,8.0,58,0.00,,---,0.00,VWS V13.01,2013-07-29 21:24:00,
2013-07-29 17:29:00,72.2,56.1,30.10,West,272,8.0,10.0,57,0.00,,---,0.00,VWS V13.01,2013-07-29 21:29:00,
2013-07-29 17:34:00,71.8,56.2,30.10,WSW,247,6.0,12.0,58,0.00,,---,0.00,VWS V13.01,2013-07-29 21:34:00,
2013-07-29 17:39:00,71.5,56.4,30.10,WSW,257,7.0,8.0,59,0.00,,---,0.00,VWS V13.01,2013-07-29 21:39:00,
2013-07-29 17:45:00,71.5,56.9,30.10,SW,236,1.0,9.0,60,0.00,,---,0.00,VWS V13.01,2013-07-29 21:45:00,
2013-07-29 17:50:00,71.5,56.9,30.10,SW,219,7.0,7.0,60,0.00,,---,0.00,VWS V13.01,2013-07-29 21:50:00,
2013-07-29 17:55:00,71.4,56.8,30.10,SW,226,5.0,10.0,60,0.00,,---,0.00,VWS V13.01,2013-07-29 21:55:00,
2013-07-29 18:00:00,71.3,57.2,30.10,SW,227,8.0,9.0,61,0.00,,---,0.00,VWS V13.01,2013-07-29 22:00:00,
2013-07-29 18:05:00,71.2,57.5,30.10,SW,236,7.0,11.0,62,0.00,,---,0.00,VWS V13.01,2013-07-29 22:05:00,
2013-07-29 18:10:00,71.0,56.9,30.10,SSW,213,5.0,8.0,61,0.00,,---,0.00,VWS V13.01,2013-07-29 22:10:00,
2013-07-29 18:15:00,70.9,57.2,30.10,SW,219,5.0,11.0,62,0.00,,---,0.00,VWS V13.01,2013-07-29 22:15:00,
2013-07-29 18:20:00,70.7,57.1,30.10,SSW,192,5.0,9.0,62,0.00,,---,0.00,VWS V13.01,2013-07-29 22:20:00,
2013-07-29 18:25:00,70.6,57.0,30.10,South,191,6.0,12.0,62,0.00,,---,0.00,VWS V13.01,2013-07-29 22:25:00,
2013-07-29 18:30:00,70.4,56.8,30.10,West,275,6.0,8.0,62,0.00,,---,0.00,VWS V13.01,2013-07-29 22:30:00,
2013-07-29 18:35:00,70.3,56.7,30.10,WSW,250,3.0,9.0,62,0.00,,---,0.00,VWS V13.01,2013-07-29 22:35:00,
2013-07-29 18:40:00,70.5,57.3,30.11,West,275,2.0,6.0,63,0.00,,---,0.00,VWS V13.01,2013-07-29 22:40:00,
2013-07-29 18:45:00,71.2,58.0,30.11,SW,227,4.0,8.0,63,0.00,,---,0.00,VWS V13.01,2013-07-29 22:45:00,
2013-07-29 18:50:00,71.5,57.8,30.11,WSW,246,2.0,3.0,62,0.00,,---,0.00,VWS V13.01,2013-07-29 22:50:00,
2013-07-29 18:55:00,71.3,57.6,30.11,West,279,3.0,10.0,62,0.00,,---,0.00,VWS V13.01,2013-07-29 22:55:00,
2013-07-29 19:00:00,71.2,58.0,30.11,West,279,0.0,2.0,63,0.00,,---,0.00,VWS V13.01,2013-07-29 23:00:00,
2013-07-29 19:05:00,71.2,58.0,30.11,WNW,284,2.0,5.0,63,0.00,,---,0.00,VWS V13.01,2013-07-29 23:05:00,
2013-07-29 19:10:00,71.0,57.3,30.11,WSW,242,2.0,2.0,62,0.00,,---,0.00,VWS V13.01,2013-07-29 23:10:00,
2013-07-29 19:15:00,70.8,57.2,30.11,WSW,250,3.0,6.0,62,0.00,,---,0.00,VWS V13.01,2013-07-29 23:15:00,
2013-07-29 19:20:00,70.5,57.3,30.11,West,263,4.0,5.0,63,0.00,,---,0.00,VWS V13.01,2013-07-29 23:20:00,
2013-07-29 19:25:00,70.3,57.1,30.11,WSW,258,0.0,5.0,63,0.00,,---,0.00,VWS V13.01,2013-07-29 23:25:00,
2013-07-29 19:31:00,70.2,57.5,30.11,WSW,258,3.0,4.0,64,0.00,,---,0.00,VWS V13.01,2013-07-29 23:31:00,
2013-07-29 19:36:00,70.1,57.8,30.11,WNW,294,0.0,4.0,65,0.00,,---,0.00,VWS V13.01,2013-07-29 23:36:00,
2013-07-29 19:41:00,70.0,57.7,30.12,WNW,296,0.0,2.0,65,0.00,,---,0.00,VWS V13.01,2013-07-29 23:41:00,
2013-07-29 19:46:00,70.0,57.7,30.12,WNW,296,0.0,4.0,65,0.00,,---,0.00,VWS V13.01,2013-07-29 23:46:00,
2013-07-29 19:51:00,70.0,58.1,30.12,WSW,257,1.0,3.0,66,0.00,,---,0.00,VWS V13.01,2013-07-29 23:51:00,
2013-07-29 19:56:00,70.0,57.3,30.12,WSW,246,1.0,4.0,64,0.00,,---,0.00,VWS V13.01,2013-07-29 23:56:00,
2013-07-29 20:01:00,69.9,57.2,30.12,WNW,284,1.0,5.0,64,0.00,,---,0.00,VWS V13.01,2013-07-30 00:01:00,
2013-07-29 20:06:00,69.7,57.0,30.12,WNW,303,0.0,5.0,64,0.00,,---,0.00,VWS V13.01,2013-07-30 00:06:00,
2013-07-29 20:12:00,69.4,57.1,30.13,WNW,298,1.0,2.0,65,0.00,,---,0.00,VWS V13.01,2013-07-30 00:12:00,
2013-07-29 20:17:00,69.2,57.4,30.13,WNW,298,0.0,3.0,66,0.00,,---,0.00,VWS V13.01,2013-07-30 00:17:00,
2013-07-29 20:22:00,68.9,57.1,30.13,WNW,298,0.0,0.0,66,0.00,,---,0.00,VWS V13.01,2013-07-30 00:22:00,
2013-07-29 20:27:00,68.7,57.3,30.13,WNW,298,0.0,2.0,67,0.00,,---,0.00,VWS V13.01,2013-07-30 00:27:00,
2013-07-29 20:32:00,68.4,57.4,30.13,WNW,298,1.0,2.0,68,0.00,,---,0.00,VWS V13.01,2013-07-30 00:32:00,
2013-07-29 20:37:00,68.2,57.7,30.14,WNW,298,0.0,2.0,69,0.00,,---,0.00,VWS V13.01,2013-07-30 00:37:00,
2013-07-29 20:42:00,67.9,57.4,30.14,WNW,298,0.0,1.0,69,0.00,,---,0.00,VWS V13.01,2013-07-30 00:42:00,
2013-07-29 20:47:00,67.6,57.5,30.14,WNW,298,0.0,1.0,70,0.00,,---,0.00,VWS V13.01,2013-07-30 00:47:00,
2013-07-29 20:52:00,67.2,57.5,30.14,WNW,298,0.0,0.0,71,0.00,,---,0.00,VWS V13.01,2013-07-30 00:52:00,
2013-07-29 20:57:00,66.9,57.6,30.14,WNW,298,0.0,0.0,72,0.00,,---,0.00,VWS V13.01,2013-07-30 00:57:00,
2013-07-29 21:02:00,66.5,57.6,30.15,WNW,298,0.0,0.0,73,0.00,,---,0.00,VWS V13.01,2013-07-30 01:02:00,
2013-07-29 21:07:00,66.1,58.0,30.15,WNW,298,0.0,1.0,75,0.00,,---,0.00,VWS V13.01,2013-07-30 01:07:00,
2013-07-29 21:12:00,65.7,57.6,30.15,WNW,298,1.0,1.0,75,0.00,,---,0.00,VWS V13.01,2013-07-30 01:12:00,
2013-07-29 21:17:00,65.3,57.5,30.15,WNW,298,0.0,2.0,76,0.00,,---,0.00,VWS V13.01,2013-07-30 01:17:00,
2013-07-29 21:22:00,65.0,57.6,30.15,WNW,298,0.0,0.0,77,0.00,,---,0.00,VWS V13.01,2013-07-30 01:22:00,
2013-07-29 21:27:00,64.7,57.7,30.16,WNW,298,0.0,0.0,78,0.00,,---,0.00,VWS V13.01,2013-07-30 01:27:00,
2013-07-29 21:32:00,64.4,57.8,30.16,WNW,298,0.0,0.0,79,0.00,,---,0.00,VWS V13.01,2013-07-30 01:32:00,
2013-07-29 21:37:00,64.1,57.8,30.16,WNW,298,0.0,0.0,80,0.00,,---,0.00,VWS V13.01,2013-07-30 01:37:00,
2013-07-29 21:42:00,63.9,58.0,30.16,WNW,298,0.0,0.0,81,0.00,,---,0.00,VWS V13.01,2013-07-30 01:42:00,
2013-07-29 21:48:00,63.6,57.7,30.16,WNW,298,0.0,0.0,81,0.00,,---,0.00,VWS V13.01,2013-07-30 01:48:00,
2013-07-29 21:53:00,63.4,57.8,30.16,WNW,298,0.0,0.0,82,0.00,,---,0.00,VWS V13.01,2013-07-30 01:53:00,
2013-07-29 21:58:00,63.2,57.6,30.16,WNW,298,0.0,1.0,82,0.00,,---,0.00,VWS V13.01,2013-07-30 01:58:00,
2013-07-29 22:03:00,62.9,57.3,30.17,WNW,298,0.0,1.0,82,0.00,,---,0.00,VWS V13.01,2013-07-30 02:03:00,
2013-07-29 22:08:00,62.7,57.5,30.17,WNW,298,0.0,1.0,83,0.00,,---,0.00,VWS V13.01,2013-07-30 02:08:00,
2013-07-29 22:13:00,62.6,57.4,30.17,WNW,298,0.0,2.0,83,0.00,,---,0.00,VWS V13.01,2013-07-30 02:13:00,
2013-07-29 22:18:00,62.5,57.6,30.17,WNW,298,0.0,2.0,84,0.00,,---,0.00,VWS V13.01,2013-07-30 02:18:00,
2013-07-29 22:23:00,62.3,57.4,30.17,WNW,298,0.0,1.0,84,0.00,,---,0.00,VWS V13.01,2013-07-30 02:23:00,
2013-07-29 22:28:00,62.2,57.3,30.18,WNW,298,0.0,1.0,84,0.00,,---,0.00,VWS V13.01,2013-07-30 02:28:00,
2013-07-29 22:33:00,62.0,57.1,30.18,WNW,298,0.0,0.0,84,0.00,,---,0.00,VWS V13.01,2013-07-30 02:33:00,
2013-07-29 22:38:00,61.9,57.3,30.17,WNW,298,0.0,1.0,85,0.00,,---,0.00,VWS V13.01,2013-07-30 02:38:00,
2013-07-29 22:43:00,61.7,57.2,30.18,WNW,298,0.0,2.0,85,0.00,,---,0.00,VWS V13.01,2013-07-30 02:43:00,
2013-07-29 22:48:00,61.5,57.3,30.18,WNW,298,0.0,2.0,86,0.00,,---,0.00,VWS V13.01,2013-07-30 02:48:00,
2013-07-29 22:53:00,61.4,57.2,30.17,WNW,298,0.0,0.0,86,0.00,,---,0.00,VWS V13.01,2013-07-30 02:53:00,
2013-07-29 22:58:00,61.2,57.0,30.17,WNW,298,0.0,0.0,86,0.00,,---,0.00,VWS V13.01,2013-07-30 02:58:00,
2013-07-29 23:04:00,60.9,56.7,30.17,WNW,298,0.0,0.0,86,0.00,,---,0.00,VWS V13.01,2013-07-30 03:04:00,
2013-07-29 23:09:00,60.6,56.7,30.17,WNW,298,0.0,0.0,87,0.00,,---,0.00,VWS V13.01,2013-07-30 03:09:00,
2013-07-29 23:13:00,60.3,56.4,30.17,WNW,298,0.0,0.0,87,0.00,,---,0.00,VWS V13.01,2013-07-30 03:13:00,
2013-07-29 23:19:00,60.1,56.5,30.17,WNW,298,0.0,0.0,88,0.00,,---,0.00,VWS V13.01,2013-07-30 03:19:00,
2013-07-29 23:24:00,59.8,56.2,30.17,WNW,298,0.0,0.0,88,0.00,,---,0.00,VWS V13.01,2013-07-30 03:24:00,
2013-07-29 23:29:00,59.6,56.0,30.17,WNW,298,0.0,0.0,88,0.00,,---,0.00,VWS V13.01,2013-07-30 03:29:00,
2013-07-29 23:34:00,59.4,55.8,30.17,WNW,298,0.0,0.0,88,0.00,,---,0.00,VWS V13.01,2013-07-30 03:34:00,
2013-07-29 23:39:00,59.2,55.7,30.17,WNW,298,0.0,0.0,88,0.00,,---,0.00,VWS V13.01,2013-07-30 03:39:00,
2013-07-29 23:44:00,59.0,55.8,30.17,WNW,298,0.0,0.0,89,0.00,,---,0.00,VWS V13.01,2013-07-30 03:44:00,
2013-07-29 23:49:00,58.7,55.5,30.17,WNW,298,0.0,0.0,89,0.00,,---,0.00,VWS V13.01,2013-07-30 03:49:00,
2013-07-29 23:54:00,58.5,55.3,30.17,WNW,298,0.0,0.0,89,0.00,,---,0.00,VWS V13.01,2013-07-30 03:54:00,
2013-07-29 23:59:00,58.3,55.1,30.17,WNW,298,0.0,0.0,89,0.00,,---,0.00,VWS V13.01,2013-07-30 03:59:00,